Fargo, ND

11:18 AM CST on December 05, 2019 (GMT -0600)
Hector International

Weather History for KFAR - October, 2019

Change the Weather History Date:

Monday, October 14, 2019

  Actual Average Record
Temperature  
Mean Temperature 41 °F 47 °F  
Max Temperature 50 °F 57 °F 86 °F (1962)
Min Temperature 34 °F 36 °F 16 °F (1937)
Degree Days  
Heating Degree Days 24 18  
Month to date heating degree days 220  
Since 1 July heating degree days 490  
Cooling Degree Days 0 0  
Month to date cooling degree days 0  
Year to date cooling degree days 548  
Moisture  
Dew Point 34 °F    
Average Humidity 79    
Maximum Humidity 92    
Minimum Humidity 59    
Precipitation  
Precipitation 0.00 in 0.07 in 1.27 in (2013)
Month to date precipitation 1.10  
Year to date precipitation 19.70  
Snow  
Snow - 0.00 in 0.60 in (1909)
Month to date snowfall 0.1  
Since 1 July snowfall 0.1  
Since 1 September snowfall 0.1  
Snow Depth -    
Sea Level Pressure  
Sea Level Pressure 29.94 in    
Wind  
Wind Speed 5 mph ()    
Max Wind Speed 9 mph    
Max Gust Speed -    
Visibility 10.0 miles    
Events      
T = Trace of Precipitation, MM = Missing Value Source: Averaged Metar Reports

Daily Weather History Graph

Daily Weather History Graph

Search for Another Location

Airport or City:

Astronomy

Oct. 14, 2019 Rise Set
Actual Time 7:43 AM CDT 6:42 PM CDT
Civil Twilight 7:12 AM CDT 7:12 PM CDT
Nautical Twilight 6:37 AM CDT 7:47 PM CDT
Astronomical Twilight 6:02 AM CDT 8:23 PM CDT
Moon 7:32 PM CDT (10/14) 8:15 AM CDT (10/14)
Length of Visible Light 11h 59m
Length of Day
10h 58m
Full, 99% of the Moon is Illuminated
Oct 14
Full
Oct 21
Last Quarter
Oct 27
New
Nov 4
First Quarter
Nov 12
Full

Hourly Weather History & Observations

Time (CDT) Temp. Windchill Dew Point Humidity Pressure Visibility Wind Dir Wind Speed Gust Speed Precip Events Conditions
12:53 AM 36.0 °F 31.1 °F 33.1 °F 89% 29.97 in 10.0 mi SW 5.8 mph - N/A   Overcast
1:53 AM 36.0 °F 31.1 °F 33.1 °F 89% 29.96 in 10.0 mi SW 5.8 mph - N/A   Overcast
2:53 AM 36.0 °F 30.3 °F 33.1 °F 89% 29.97 in 10.0 mi West 6.9 mph - N/A   Overcast
3:53 AM 36.0 °F 31.1 °F 33.1 °F 89% 29.96 in 10.0 mi WSW 5.8 mph - N/A   Overcast
4:53 AM 35.1 °F 30.1 °F 33.1 °F 92% 29.96 in 10.0 mi SSW 5.8 mph - N/A   Overcast
5:53 AM 35.1 °F 29.3 °F 32.0 °F 89% 29.97 in 10.0 mi SSW 6.9 mph - N/A   Overcast
6:53 AM 34.0 °F 28.0 °F 32.0 °F 92% 29.97 in 10.0 mi SSW 6.9 mph - N/A   Overcast
7:53 AM 34.0 °F 28.8 °F 30.9 °F 89% 29.97 in 10.0 mi SSW 5.8 mph - N/A   Overcast
8:53 AM 36.0 °F 30.3 °F 30.9 °F 82% 29.97 in 10.0 mi South 6.9 mph - N/A   Overcast
9:53 AM 36.0 °F 29.6 °F 30.9 °F 82% 29.98 in 10.0 mi SSW 8.1 mph - N/A   Overcast
10:53 AM 37.9 °F 31.5 °F 32.0 °F 79% 29.98 in 10.0 mi SSW 9.2 mph - N/A   Overcast
11:53 AM 39.9 °F 35.8 °F 33.1 °F 77% 29.96 in 10.0 mi South 5.8 mph - N/A   Overcast
12:53 PM 43.0 °F 39.5 °F 33.1 °F 68% 29.96 in 10.0 mi SSW 5.8 mph - N/A   Overcast
1:53 PM 46.0 °F 41.9 °F 34.0 °F 63% 29.93 in 10.0 mi South 8.1 mph - N/A   Overcast
2:53 PM 46.9 °F - 34.0 °F 61% 29.90 in 10.0 mi SSW 5.8 mph - N/A   Clear
3:53 PM 48.9 °F - 35.1 °F 59% 29.89 in 10.0 mi ESE 4.6 mph - N/A   Clear
4:53 PM 48.0 °F - 35.1 °F 61% 29.89 in 10.0 mi SSE 6.9 mph - N/A   Clear
5:53 PM 46.9 °F - 35.1 °F 63% 29.89 in 10.0 mi SSE 6.9 mph - N/A   Clear
6:53 PM 45.0 °F 41.2 °F 36.0 °F 71% 29.89 in 10.0 mi East 6.9 mph - N/A   Clear
7:53 PM 42.1 °F 39.2 °F 36.0 °F 79% 29.91 in 10.0 mi East 4.6 mph - N/A   Clear
8:53 PM 39.0 °F 34.8 °F 35.1 °F 86% 29.91 in 10.0 mi East 5.8 mph - N/A   Clear
9:53 PM 39.9 °F 37.8 °F 35.1 °F 83% 29.93 in 10.0 mi ENE 3.5 mph - N/A   Clear
10:53 PM 39.0 °F 35.7 °F 35.1 °F 86% 29.94 in 10.0 mi East 4.6 mph - N/A   Clear
11:53 PM 39.0 °F - 35.1 °F 86% 29.92 in 10.0 mi Calm Calm - N/A   Overcast